Regional Weather Roundup
Issued by NWS

Home | Current Version | Previous Version | Graphics & Text | Print | Product List | Glossary On
Versions: 1 2 3 4 5 6 7 8 9 10 11 12 13 14 15 16 17 18 19 20 21 22 23 24 25 26 27 28 29 30 31 32 33 34 35 36 37 38 39 40 41 42 43 44 45 46 47 48 49 50
000
ASUS43 KFSD 080410
RWRSD

WEATHER ROUNDUP FOR SOUTH DAKOTA
NATIONAL WEATHER SERVICE SIOUX FALLS SD
1100 PM CDT TUE JUL 07 2015

NOTE: "FAIR" INDICATES FEW OR NO CLOUDS BELOW 12,000 FEET WITH NO
SIGNIFICANT WEATHER AND/OR OBSTRUCTIONS TO VISIBILITY.


SDZ001>005-009-010-012>017-080500-
NORTHWEST AND NORTH CENTRAL SOUTH DAKOTA

CITY           SKY/WX    TMP DP  RH WIND       PRES   REMARKS
BUFFALO          N/A     62  58  86 NE9       29.93R
FAITH            N/A     66  56  70 S16       29.98R
MOBRIDGE       MOCLDY    68  58  70 SE20      30.00R
$$

SDZ012>016-024>037-041>051-057-063-072>074-080500-
SOUTHWEST AND SOUTH CENTRAL SOUTH DAKOTA

CITY           SKY/WX    TMP DP  RH WIND       PRES   REMARKS
RAPID CTY ARPT MOCLDY    65  57  75 W5        30.04R
PIERRE         CLEAR     63  57  81 SE12      30.02R
CUSTER         CLOUDY    58  51  78 S5        30.14R
ELLSWORTH AFB  RAIN      65  60  82 S8        30.03
PHILIP         CLOUDY    66  58  75 S7        30.01R
PINE RIDGE     PTCLDY    66  51  58 S15G23    30.05R
SPEARFISH      MOCLDY    61  55  82 SW17G23   30.05R
WINNER         FAIR      63  54  72 SE10      30.07R
$$

SDZ004>011-016>023-039-040-080500-
NORTHEAST SOUTH DAKOTA

CITY           SKY/WX    TMP DP  RH WIND       PRES   REMARKS
ABERDEEN       CLEAR     55  50  83 SE9       30.07S
WATERTOWN      PTCLDY    59  50  72 SE6       30.10R
BROOKINGS      FAIR      57  50  77 SE8       30.13S
SISSETON         N/A     55  50  83 SW6       30.08R
$$

SDZ017-020-022-023-036>040-048>070-080500-
SOUTHEAST SOUTH DAKOTA

CITY           SKY/WX    TMP DP  RH WIND       PRES   REMARKS
SIOUX FALLS    PTCLDY    60  50  69 SE8       30.11S
HURON          PTCLDY    60  51  72 SE8       30.08S
CHAMBERLAIN    CLEAR     60  54  82 SE9       30.08R
MITCHELL       PTCLDY    61  55  81 S6        30.10S
YANKTON        PTCLDY    57  52  82 CALM      30.10S
$$

ABBREVIATIONS USED IN REMARKS
   TC - TEMPERATURE IN CELSIUS
  WCI - WIND CHILL INDEX
   HX - HEAT INDEX
  VSB - VISIBILITY



USA.gov is the U.S. government's official web portal to all federal, state and local government web resources and services.